Regional Weather Roundup
Issued by NWS

Home | Current Version | Previous Version | Text Only | Print | Product List | Glossary On
Versions: 1 2 3 4 5 6 7 8 9 10 11 12 13 14 15 16 17 18 19 20 21 22 23 24 25 26 27 28 29 30 31 32 33 34 35 36 37 38 39 40 41 42 43 44 45 46 47 48 49 50
000
ASUS44 KBMX 260410
RWRAL

ALABAMA REGIONAL WEATHER ROUNDUP
NATIONAL WEATHER SERVICE BIRMINGHAM AL
1100 PM CDT THU MAY 25 2017

NOTE: "FAIR" INDICATES FEW OR NO CLOUDS BELOW 12,000 FEET
WITH NO SIGNIFICANT WEATHER AND/OR OBSTRUCTIONS TO VISIBILITY.

THE REMARK "TC" DENOTES TEMPERATURE IN DEGREES CELSIUS.

ALZ001>011-014-016>018-020-260500-
NORTH ALABAMA

CITY           SKY/WX    TMP DP  RH WIND       PRES   REMARKS
MUSCLE SHOALS  CLEAR     58  54  86 CALM      29.90R
HUNTSVILLE     CLEAR     61  57  87 S3        29.91R
DECATUR        CLEAR     58  55  90 S3        29.91R
HALEYVILLE     FAIR      55  54  96 CALM      29.93R
GADSDEN        CLEAR     56  54  93 CALM      29.93R
$$

ALZ012-013-022-023-030>036-040>044-260500-
WEST CENTRAL ALABAMA

CITY           SKY/WX    TMP DP  RH WIND       PRES   REMARKS
TUSCALOOSA     CLEAR     60  58  92 CALM      29.92R
$$

ALZ015-024>027-033>036-040>044-260500-
CENTRAL ALABAMA

CITY           SKY/WX    TMP DP  RH WIND       PRES   REMARKS
BIRMINGHAM     CLEAR     60  55  83 CALM      29.95R
MONTGOMERY     CLEAR     60  54  80 CALM      29.95R
SHELBY CO ARPT CLEAR     59  57  93 CALM      29.94R
MAXWELL AFB    CLEAR     61  59  94 CALM      29.94R
GREENVILLE     FAIR      81  76  84 CALM      29.95R
$$

ALZ019-021-028-029-037-038-045>048-260500-
EAST CENTRAL ALABAMA

CITY           SKY/WX    TMP DP  RH WIND       PRES   REMARKS
ANNISTON       CLEAR     57  54  89 CALM      29.94R
ALEXANDER CITY CLEAR     55  54  94 CALM      29.96R
AUBURN         CLEAR     62  54  74 CALM      29.97R
$$

ALZ051>064-260500-
SOUTHWEST ALABAMA

CITY           SKY/WX    TMP DP  RH WIND       PRES   REMARKS
MOBILE         CLEAR     66  59  78 S6        29.96R
BROOKLEY FIELD CLEAR     71  62  73 SW3       29.96R
EVERGREEN      CLEAR     59  57  93 CALM      29.96R
$$

ALZ049-050-065>069-260500-
SOUTHEAST ALABAMA

CITY           SKY/WX    TMP DP  RH WIND       PRES   REMARKS
DOTHAN         CLEAR     65  55  70 S3        29.99R
OZARK          CLEAR     62  55  77 CALM      29.95R
TROY           CLEAR     58  57  97 CALM      29.96R
EUFAULA        FAIR      56  53  90 CALM      29.94R
$$



USA.gov is the U.S. government's official web portal to all federal, state and local government web resources and services.